Weather History for KVOK - December, 2014

Change the Weather History Date:

Wednesday, December 3, 2014

  Actual Average Record
Temperature  
Mean Temperature 18 °F -  
Max Temperature 28 °F 35 °F 62 °F (2012)
Min Temperature 7 °F 23 °F 0 °F (2002)
Degree Days  
Heating Degree Days 47    
Moisture  
Dew Point 12 °F    
Average Humidity 75    
Maximum Humidity 100    
Minimum Humidity 47    
Precipitation  
Precipitation 0.00 in - - ()
Snow  
Snow 0.00 in - - ()
Snow Depth 1.00 in    
Sea Level Pressure  
Sea Level Pressure 30.23 in    
Wind  
Wind Speed 9 mph (West)    
Max Wind Speed 18 mph    
Max Gust Speed 26 mph    
Visibility 10 miles    
Events      
Averages and records for this station are not official NWS values.
T = Trace of Precipitation, MM = Missing Value Source: NWS Daily Summary

Daily Weather History Graph

Daily Weather History Graph

Search for Another Location

Airport or City:

Trip Planner

Search our weather history database for the weather conditions in past years. The results will help you decide how hot, cold, wet, or windy it might be!

Date:

Astronomy

Dec. 03, 2014 Rise Set
Actual Time 7:17 AM CST 4:23 PM CST
Civil Twilight 6:45 AM CST 4:56 PM CST
Nautical Twilight 6:09 AM CST 5:32 PM CST
Astronomical Twilight 5:34 AM CST 6:07 PM CST
Moon 2:49 PM CST (12/3) 3:59 AM CST (12/3)
Length of Visible Light 10h 11m
Length of Day
9h 06m
Waxing Gibbous, 91% of the Moon is Illuminated
Dec 3
Waxing Gibbous
Dec 6
Full
Dec 14
Last Quarter
Dec 21
New
Dec 28
First Quarter

Hourly Weather History & Observations

Time (CST) Temp. Windchill Dew Point Humidity Pressure Visibility Wind Dir Wind Speed Gust Speed Precip Events Conditions
12:58 AM 23.4 °F 15.2 °F 20.3 °F 88% 30.01 in 10.0 mi SW 6.9 mph - N/A   Partly Cloudy
1:58 AM 21.7 °F 13.2 °F 19.0 °F 89% 30.01 in 10.0 mi WSW 6.9 mph - N/A   Clear
2:58 AM 19.0 °F 9.0 °F 17.4 °F 93% 30.04 in 10.0 mi WSW 8.1 mph - N/A   Clear
3:58 AM 19.4 °F 8.6 °F 14.5 °F 81% 30.06 in 10.0 mi West 9.2 mph - N/A   Clear
4:58 AM 19.4 °F 7.9 °F 13.5 °F 78% 30.07 in 10.0 mi West 10.4 mph - N/A   Clear
5:58 AM 18.3 °F 7.3 °F 11.1 °F 73% 30.11 in 10.0 mi West 9.2 mph - N/A   Clear
6:58 AM 17.6 °F 5.7 °F 12.2 °F 79% 30.14 in 10.0 mi West 10.4 mph - N/A   Clear
7:58 AM 19.4 °F 7.2 °F 14.0 °F 80% 30.17 in 10.0 mi West 11.5 mph - N/A   Clear
8:58 AM 21.2 °F 8.3 °F 15.8 °F 80% 30.19 in 10.0 mi West 13.8 mph 18.4 mph N/A   Clear
9:58 AM 24.8 °F 11.1 °F 14.0 °F 64% 30.23 in 10.0 mi West 18.4 mph 26.5 mph N/A   Clear
10:58 AM 24.8 °F 11.1 °F 14.0 °F 64% 30.23 in 10.0 mi West 18.4 mph 24.2 mph N/A   Clear
11:58 AM 26.6 °F 14.7 °F 14.0 °F 59% 30.22 in 10.0 mi WNW 15.0 mph 23.0 mph N/A   Clear
12:58 PM 28.4 °F 18.0 °F 10.4 °F 47% 30.23 in 10.0 mi West 12.7 mph - N/A   Clear
1:58 PM 28.4 °F 18.0 °F 12.2 °F 51% 30.25 in 10.0 mi West 12.7 mph - N/A   Clear
2:58 PM 26.6 °F 15.7 °F 10.4 °F 51% 30.26 in 10.0 mi WSW 12.7 mph - N/A   Clear
3:58 PM 24.8 °F 14.0 °F 8.6 °F 50% 30.29 in 10.0 mi West 11.5 mph - N/A   Partly Cloudy
4:58 PM 21.2 °F 9.5 °F 8.6 °F 58% 30.33 in 10.0 mi West 11.5 mph - N/A   Partly Cloudy
5:58 PM 19.4 °F 8.6 °F 8.6 °F 63% 30.36 in 10.0 mi West 9.2 mph - N/A   Mostly Cloudy
6:58 PM 15.8 °F 5.1 °F 8.6 °F 73% 30.38 in 10.0 mi West 8.1 mph - N/A   Mostly Cloudy
7:58 PM 14.0 °F 5.1 °F 8.6 °F 79% 30.40 in 10.0 mi West 5.8 mph - N/A   Overcast
8:58 PM 12.2 °F 6.1 °F 10.4 °F 92% 30.40 in 10.0 mi WSW 3.5 mph - N/A   Overcast
9:58 PM 10.4 °F - 10.4 °F 100% 30.40 in 10.0 mi Calm Calm - N/A   Overcast
10:58 PM 8.6 °F - 8.6 °F 100% 30.40 in 10.0 mi NW 1.2 mph - N/A   Overcast
11:58 PM 7.3 °F - 7.2 °F 99% 30.41 in 10.0 mi West 2.3 mph - N/A   Clear